Weather History for Sumter, SC

Change the Weather History Date:

Tuesday, February 4, 2014

  Actual Average Record
Temperature  
Mean Temperature 46 °F -  
Max Temperature 51 °F 58 °F 71 °F (2012)
Min Temperature 42 °F 34 °F 24 °F (2013)
Degree Days  
Heating Degree Days 18    
Moisture  
Dew Point 42 °F    
Average Humidity 90    
Maximum Humidity 100    
Minimum Humidity 71    
Precipitation  
Precipitation 0.00 in - - ()
Sea Level Pressure  
Sea Level Pressure 30.22 in    
Wind  
Wind Speed 8 mph (NE)    
Max Wind Speed 12 mph    
Max Gust Speed 17 mph    
Visibility 6 miles    
Events Rain    
Averages and records for this station are not official NWS values.
T = Trace of Precipitation, MM = Missing Value Source: NWS Daily Summary

Daily Weather History Graph

Daily Weather History Graph

Search for Another Location

Airport:

Trip Planner

Search our weather history database for the weather conditions in past years. The results will help you decide how hot, cold, wet, or windy it might be!

Date:

Astronomy

Feb. 04, 2014 Rise Set
Actual Time 7:16 AM EST 5:55 PM EST
Civil Twilight 6:50 AM EST 6:21 PM EST
Nautical Twilight 6:20 AM EST 6:50 PM EST
Astronomical Twilight 5:50 AM EST 7:20 PM EST
Moon 10:10 AM EST (2/4) 11:29 PM EST (2/4)
Length of Visible Light 11h 31m
Length of Day
10h 38m
Waxing Crescent, 29% of the Moon is Illuminated
Feb 4
Waxing Crescent
Feb 6
First Quarter
Feb 14
Full
Feb 22
Last Quarter
Mar 1
New

Hourly Weather History & Observations

Time (EST) Temp. Windchill Dew Point Humidity Pressure Visibility Wind Dir Wind Speed Gust Speed Precip Events Conditions
12:15 AM 51.8 °F - 42.8 °F 71% 30.20 in 10.0 mi NE 11.5 mph 17.3 mph N/A   Partly Cloudy
12:35 AM 51.8 °F - 44.6 °F 76% 30.20 in 10.0 mi NE 6.9 mph - N/A   Mostly Cloudy
12:55 AM 50.0 °F - 42.8 °F 76% 30.20 in 10.0 mi NE 6.9 mph - N/A   Mostly Cloudy
1:15 AM 50.0 °F - 42.8 °F 76% 30.21 in 10.0 mi NE 9.2 mph - N/A   Mostly Cloudy
1:35 AM 50.0 °F - 42.8 °F 76% 30.21 in 10.0 mi NE 9.2 mph - N/A   Mostly Cloudy
1:55 AM 50.0 °F - 42.8 °F 76% 30.21 in 10.0 mi NE 6.9 mph 13.8 mph N/A   Overcast
2:15 AM 50.0 °F - 42.8 °F 76% 30.22 in 10.0 mi NE 11.5 mph 17.3 mph N/A   Overcast
2:35 AM 50.0 °F - 42.8 °F 76% 30.22 in 10.0 mi ENE 9.2 mph 16.1 mph N/A   Overcast
2:55 AM 48.2 °F - 42.8 °F 82% 30.22 in 10.0 mi NE 8.1 mph 13.8 mph N/A   Overcast
3:15 AM 48.2 °F - 42.8 °F 82% 30.22 in 10.0 mi NE 9.2 mph - N/A   Overcast
3:35 AM 48.2 °F - 42.8 °F 82% 30.22 in 10.0 mi ENE 6.9 mph 13.8 mph N/A   Overcast
3:55 AM 48.2 °F - 41.0 °F 76% 30.22 in 10.0 mi NE 11.5 mph - N/A   Overcast
4:15 AM 46.4 °F 42.4 °F 41.0 °F 81% 30.23 in 10.0 mi NE 8.1 mph - N/A   Overcast
4:35 AM 46.4 °F 41.5 °F 41.0 °F 81% 30.23 in 10.0 mi NE 10.4 mph - N/A   Overcast
4:55 AM 46.4 °F 43.5 °F 41.0 °F 81% 30.23 in 10.0 mi ENE 5.8 mph 15.0 mph N/A   Overcast
5:15 AM 46.4 °F 42.9 °F 41.0 °F 81% 30.24 in 10.0 mi NE 6.9 mph 13.8 mph N/A   Overcast
5:35 AM 46.4 °F 42.9 °F 41.0 °F 81% 30.26 in 10.0 mi NE 6.9 mph 13.8 mph N/A   Overcast
5:55 AM 44.6 °F 40.7 °F 41.0 °F 87% 30.27 in 10.0 mi NE 6.9 mph - N/A   Overcast
6:15 AM 44.6 °F 41.4 °F 41.0 °F 87% 30.28 in 10.0 mi NE 5.8 mph 15.0 mph N/A   Overcast
6:35 AM 44.6 °F 40.2 °F 41.0 °F 87% 30.27 in 10.0 mi NE 8.1 mph 16.1 mph N/A   Overcast
6:55 AM 44.6 °F 39.7 °F 41.0 °F 87% 30.28 in 10.0 mi NE 9.2 mph 16.1 mph N/A   Overcast
7:15 AM 44.6 °F 39.7 °F 41.0 °F 87% 30.29 in 10.0 mi NE 9.2 mph - N/A   Overcast
7:35 AM 44.6 °F 40.7 °F 41.0 °F 87% 30.29 in 10.0 mi NE 6.9 mph - N/A   Overcast
7:55 AM 44.6 °F 39.7 °F 41.0 °F 87% 30.29 in 10.0 mi NE 9.2 mph - N/A   Overcast
8:15 AM 44.6 °F 39.7 °F 41.0 °F 87% 30.29 in 10.0 mi NE 9.2 mph - N/A   Overcast
8:35 AM 44.6 °F 40.2 °F 41.0 °F 87% 30.30 in 9.0 mi ENE 8.1 mph - N/A   Overcast
8:55 AM 44.6 °F 40.7 °F 41.0 °F 87% 30.31 in 6.0 mi ENE 6.9 mph 12.7 mph N/A   Light Drizzle
9:15 AM 44.6 °F 40.2 °F 41.0 °F 87% 30.32 in 7.0 mi NE 8.1 mph - N/A   Overcast
9:35 AM 44.6 °F 40.7 °F 41.0 °F 87% 30.32 in 4.0 mi NE 6.9 mph - N/A Rain Light Rain
9:55 AM 44.6 °F 39.7 °F 42.8 °F 93% 30.32 in 3.0 mi NE 9.2 mph - N/A Rain Light Rain
10:15 AM 42.8 °F 38.0 °F 42.8 °F 100% 30.33 in 2.5 mi NE 8.1 mph - N/A Rain Light Rain
10:35 AM 44.6 °F 40.7 °F 42.8 °F 93% 30.33 in 5.0 mi NE 6.9 mph - N/A   Overcast
10:55 AM 44.6 °F 40.2 °F 42.8 °F 93% 30.33 in 5.0 mi NE 8.1 mph - N/A   Light Drizzle
11:15 AM 44.6 °F 39.7 °F 42.8 °F 93% 30.32 in 6.0 mi NE 9.2 mph - N/A   Overcast
11:35 AM 44.6 °F 40.2 °F 42.8 °F 93% 30.32 in 7.0 mi NE 8.1 mph 13.8 mph N/A   Overcast
11:55 AM 44.6 °F 38.8 °F 42.8 °F 93% 30.30 in 4.0 mi NE 11.5 mph - N/A   Overcast
12:15 PM 44.6 °F 40.2 °F 42.8 °F 93% 30.29 in 3.0 mi NE 8.1 mph - N/A   Overcast
12:35 PM 44.6 °F 39.7 °F 42.8 °F 93% 30.28 in 3.0 mi NE 9.2 mph - N/A Rain Light Rain
12:55 PM 44.6 °F 39.2 °F 42.8 °F 93% 30.27 in 4.0 mi NE 10.4 mph - N/A   Overcast
1:15 PM - - - N/A% - 5.0 mi North - - N/A Rain Light Rain
1:35 PM 44.6 °F 39.7 °F 42.8 °F 93% 30.23 in 6.0 mi NE 9.2 mph - N/A   Overcast
1:55 PM 44.6 °F 39.7 °F 42.8 °F 93% 30.23 in 6.0 mi NE 9.2 mph - N/A   Overcast
2:15 PM 44.6 °F 39.7 °F 42.8 °F 93% 30.23 in 6.0 mi NE 9.2 mph - N/A   Overcast
2:35 PM 44.6 °F 42.2 °F 42.8 °F 93% 30.23 in 3.0 mi ENE 4.6 mph - N/A   Light Drizzle
2:55 PM 44.6 °F 40.7 °F 42.8 °F 93% 30.22 in 3.0 mi NE 6.9 mph - N/A   Overcast
3:15 PM 44.6 °F 39.7 °F 42.8 °F 93% 30.21 in 4.0 mi NE 9.2 mph - N/A   Overcast
3:35 PM 44.6 °F 40.2 °F 42.8 °F 93% 30.21 in 5.0 mi NE 8.1 mph - N/A   Overcast
3:55 PM 44.6 °F 39.7 °F 42.8 °F 93% 30.20 in 5.0 mi NE 9.2 mph - N/A   Overcast
4:15 PM 44.6 °F 40.2 °F 42.8 °F 93% 30.20 in 5.0 mi ENE 8.1 mph - N/A   Overcast
4:35 PM 44.6 °F 39.7 °F 42.8 °F 93% 30.20 in 5.0 mi NE 9.2 mph - N/A   Overcast
4:55 PM 44.6 °F 40.7 °F 42.8 °F 93% 30.20 in 4.0 mi NE 6.9 mph - N/A   Overcast
5:15 PM 42.8 °F 39.3 °F 42.8 °F 100% 30.20 in 3.0 mi Variable 5.8 mph - N/A   Overcast
5:35 PM 42.8 °F 38.6 °F 42.8 °F 100% 30.19 in 2.5 mi Variable 6.9 mph - N/A   Overcast
5:55 PM 42.8 °F 39.3 °F 42.8 °F 100% 30.19 in 1.5 mi ENE 5.8 mph - N/A   Overcast
6:15 PM 42.8 °F 38.6 °F 42.8 °F 100% 30.19 in 1.2 mi NE 6.9 mph 13.8 mph N/A   Overcast
6:35 PM 42.8 °F 38.6 °F 42.8 °F 100% 30.18 in 1.2 mi ENE 6.9 mph - N/A   Overcast
7:15 PM 42.8 °F 40.1 °F 42.8 °F 100% 30.19 in 1.2 mi ENE 4.6 mph - N/A   Overcast
7:35 PM 42.8 °F 39.3 °F 42.8 °F 100% 30.18 in 1.2 mi East 5.8 mph - N/A   Overcast
7:55 PM 42.8 °F 40.1 °F 42.8 °F 100% 30.17 in 1.2 mi NE 4.6 mph - N/A Rain Light Rain
8:15 PM 42.8 °F 39.3 °F 42.8 °F 100% 30.17 in 1.2 mi NE 5.8 mph - N/A   Overcast
8:35 PM 42.8 °F 38.6 °F 42.8 °F 100% 30.16 in 1.0 mi NE 6.9 mph - N/A Rain Light Rain
8:55 PM 42.8 °F 39.3 °F 42.8 °F 100% 30.15 in 1.5 mi ENE 5.8 mph - N/A   Overcast
9:15 PM 42.8 °F 41.1 °F 42.8 °F 100% 30.14 in 1.8 mi ENE 3.5 mph - N/A   Overcast
9:35 PM 42.8 °F - 42.8 °F 100% 30.14 in 0.8 mi Calm Calm - N/A   Overcast
9:55 PM 42.8 °F - 42.8 °F 100% 30.13 in 0.8 mi Calm Calm - N/A   Overcast
10:15 PM 42.8 °F - 42.8 °F 100% 30.12 in 0.8 mi Calm Calm - N/A   Overcast
10:35 PM 42.8 °F - 42.8 °F 100% 30.11 in 0.8 mi Calm Calm - N/A   Overcast
10:55 PM 42.8 °F - 42.8 °F 100% 30.11 in 0.5 mi Calm Calm - N/A   Overcast
11:15 PM 42.8 °F - 42.8 °F 100% 30.12 in 0.5 mi Calm Calm - N/A Rain Light Rain
11:35 PM 42.8 °F - 42.8 °F 100% 30.10 in 0.8 mi Calm Calm - N/A Rain Light Rain
11:55 PM 42.8 °F 41.1 °F 42.8 °F 100% 30.11 in 0.8 mi NNW 3.5 mph - N/A   Overcast